Location: Unspecified
(50.7693°N, 0.0000°E)
Time: 08:55:08
(UTC+00:00)

Transit 2A - Pass Details

Date: 26 June 2019
Orbit: 594 x 965 km, 66.7° (Epoch: 17 July)

Event Time Altitude Azimuth Distance (km) Brightness Sun altitude
Rises 03:21:29 0° 292° (WNW) 3,629 9.3 -3.9°
Reaches altitude 10° 03:25:03 10° 311° (NW) 2,646 8.8 -3.5°
Maximum altitude 03:29:06 18° 352° (N) 2,089 8.8 -3.1°
Drops below altitude 10° 03:32:57 10° 33° (NNE) 2,515 10.4 -2.6°
Sets 03:36:14 0° 53° (NE) 3,379 12.3 -2.2°
